Regional Weather Roundup
Issued by NWS Nashville, TN

Home | Current Version | Previous Version | Text Only | Print | Product List | Glossary On
Versions: 1 2 3 4 5 6 7 8 9 10 11 12 13 14 15 16 17 18 19 20 21 22 23 24 25 26 27 28 29 30 31 32 33 34 35 36 37 38 39 40 41 42 43 44 45 46 47 48
115
ASUS44 KOHX 241710
RWROHX
MIDDLE TENNESSEE HOURLY WEATHER ROUNDUP
NATIONAL WEATHER SERVICE NASHVILLE TN
1200 PM CDT TUE MAY 24 2016

NOTE: "FAIR" INDICATES FEW OR NO CLOUDS BELOW 12,000 FEET WITH
NO SIGNIFICANT WEATHER AND/OR OBSTRUCTIONS TO VISIBILITY.

* THESE REPORTS ARE NOT UNDER NWS QUALITY CONTROL AND MAY NOT
  REPORT WEATHER SUCH AS PRECIPITATION AND FOG.


TNZ005>011-023>034-057-059-062>066-078-080-241800
...NORTHERN MIDDLE TENNESSEE...

CITY           SKY/WX    TMP DP  RH WIND       PRES   REMARKS
CLARKSVILLE    CLOUDY    78  58  49 SW8       30.11S
CROSSVILLE     SUNNY     76  46  34 VRB6      30.19S
DICKSON        CLOUDY    81  57  44 S6        30.13S
NASHVILLE      MOSUNNY   85  51  31 S9        30.13S
SMYRNA         MOSUNNY   84  55  36 VRB3      30.13F
SPARTA         SUNNY     82  54  36 NW3       30.15S
$$
TNZ056-058-060-061-075>077-079-093>097-241800
...SOUTHERN MIDDLE TENNESSEE...

CITY           SKY/WX    TMP DP  RH WIND       PRES   REMARKS
COLUMBIA       SUNNY     81  57  44 SW8       30.12S
FAYETTEVILLE   SUNNY     81  54  39 SW5G13    30.15F
LEWISBURG      SUNNY     83  55  37 S7        30.13S
MCMINNVILLE    SUNNY     81  54  39 VRB3      30.15S
SHELBYVILLE    SUNNY     84  55  37 VRB7      30.15S
TULLAHOMA      SUNNY     81  52  36 SW8       30.16S
WINCHESTER     MOSUNNY   81  55  41 VRB5      30.15F
$$


...KEY TO REMARKS...
VSB - VISIBILITY IN MILES
WCI - WIND CHILL INDEX
HX  - HEAT INDEX





USA.gov is the U.S. government's official web portal to all federal, state and local government web resources and services.